Location: Aufkirchen
(47.9603°N, 11.3653°E)
Time: 06:23:25
(UTC+01:00)

Transit 4A - Pass Details

Date: 02 December 2020
Orbit: 864 x 980 km, 66.8° (Epoch: 25 January)

Event Time Altitude Azimuth Distance (km) Brightness Sun altitude
Rises 09:19:24 0° 252° (WSW) 3,650 10.8 10.9°
Reaches altitude 10° 09:22:18 10° 263° (W) 2,717 10.1 11.2°
Maximum altitude 09:27:50 30° 323° (NW) 1,674 8.9 11.7°
Drops below altitude 10° 09:33:26 10° 24° (NNE) 2,740 10.1 12.3°
Sets 09:36:22 0° 35° (NE) 3,686 10.8 12.6°
